Regional Weather Roundup
Issued by NWS Midland/Odessa, TX

Home | Current Version | Previous Version | Text Only | Print | Product List | Glossary On
Versions: 1 2 3 4 5 6 7 8 9 10 11 12 13 14 15 16 17 18 19 20 21 22 23 24 25 26 27 28 29 30 31 32 33 34 35 36 37 38 39 40 41 42 43 44 45 46 47 48 49 50
000
ASUS44 KMAF 231710
RWRMAF
MIDLAND AREA WEATHER ROUNDUP
NATIONAL WEATHER SERVICE MIDLAND TX
1200 PM CDT SAT MAY 23 2015

...IN SOUTHWEST TEXAS AND SOUTHEAST NEW MEXICO...

CITY           SKY/WX    TMP DP  RH WIND       PRES   REMARKS
ALPINE         MOSUNNY   78  47  33 S23G32    30.10F
ANDREWS        FAIR      73  63  70 S12G21    29.98S
ARTESIA        MOSUNNY   81  32  17 SW21G30   29.96F
BIG SPRING     PTSUNNY   82  66  59 S26G37    30.00F
CARLSBAD       MOSUNNY   81  38  21 W10       29.95F
DRYDEN           N/A     81  66  60 S9        29.99F
FORT STOCKTON  CLOUDY    78  55  44 S16       29.97F
GUAD PASS      SUNNY     73  33  23 SW15G35   30.08S
HOBBS          SUNNY     73  64  73 S13       30.00F
MARFA          MOSUNNY   77  48  36 S24G35    30.09F
MIDLAND AIRPK  CLOUDY    77  64  63 S14G23    29.98F
MIDLAND INTL   CLOUDY    77  63  61 S14G24    29.97F
ODESSA         CLOUDY    76  62  62 S16       29.98F
PECOS          CLOUDY    80  57  45 CALM      29.93F
PRESIDIO       FAIR      86  50  29 MISG      29.97F
SEMINOLE       CLOUDY    72  63  72 S15       30.00S
SNYDER         CLOUDY    77  67  70 S25G35    29.99S
WINK           PTSUNNY   80  57  45 S12       29.93F
$$
...OTHER STATIONS IN TEXAS...

CITY           SKY/WX    TMP DP  RH WIND       PRES   REMARKS
ABILENE        CLOUDY    77  68  73 S22G31    30.00F
AMARILLO       CLOUDY    58  57  97 E14       30.00F
AUSTIN         PTSUNNY   82  72  71 S20G26    30.06F
BROWNSVILLE    CLOUDY    85  74  69 SE22G29   30.06F
CORPUS CHRISTI PTSUNNY   85  74  69 S21G30    30.05F
DALLAS FTW     CLOUDY    71  71 100 SE10      30.07F FOG
DEL RIO        CLOUDY    78  72  81 SE14G23   29.99F
EL PASO        MOSUNNY   75  25  15 W14G26    30.01F
HOUSTON INT    PTSUNNY   76  70  82 E9        30.12S
LUBBOCK        CLOUDY    73  64  73 S23G35    29.97F
SAN ANGELO     CLOUDY    77  68  73 S17G26    30.01F
SAN ANTONIO    PTSUNNY   83  72  69 SE21G26   30.06F
WACO           CLOUDY    76  72  87 S14       30.08F
WICHITA FALLS  NOT AVBL
$$
...OTHER LOCATIONS IN NEW MEXICO...

CITY           SKY/WX    TMP DP  RH WIND       PRES   REMARKS
ALAMAGORDO     MOSUNNY   72  27  18 W8G18     30.04F
ALBUQUERQUE    MOSUNNY   63  29  27 VRB3      30.03F
CANNON AFB     MOSUNNY   71  57  62 SW10      29.97F
CLOVIS         MOSUNNY   72  55  56 SW14G22   29.98R
HOLLOMAN AFB   MOSUNNY   70  28  20 NW7       30.02F
ROSWELL        MOSUNNY   80  36  20 SW17G26   29.95F
RUIDOSO        SUNNY     61  23  23 SW21G26   30.12S
SANTA FE       SUNNY     61  26  26 W10G17    30.04S
TRUTH OR CONSE SUNNY     68  24  19 S9        30.00F
TUCUMCARI      MOSUNNY   74  50  42 SW14G21   29.94F
$$


USA.gov is the U.S. government's official web portal to all federal, state and local government web resources and services.